Showing default

SECOR 3, 1208

Orbit data source: Space-Track

SECOR 3, 1208 is an American payload satellite in LEO that was launched on Tue, 09 Mar 1965 UTC via a THOR SLV-2 AGENA D launch vehicle from the Air Force Western Test Range (AFWTR). Payload-class satellites include a variety of spacecraft equipped with specific instruments for various scientific and technological missions. These include communications satellites like Starlink; space stations such as the ISS; scientific satellites like the Hubble; Earth observation satellites from companies like Planet Labs, Umbra, and HawkEye 360; GPS; miniature CubeSats for education and research; and military/defense satellites.

Loading next visibility...
Identifier
1208, 1965-016E
Orbit
LEO
Country
Flag of USUS
Related business
Manufacturer
ITT
Mission
Spacecraft
Bus & Motor
SECOR, Unknown motor
Mass
18 kg wet, 18 kg dry
Launch date (UTC)
1965-03-09 (61 years ago)
Launch vehicle
THOR SLV-2 AGENA D
Launch site
Air Force Western Test Range (AFWTR)
Object type
Payload
Rocket body
Debris
Shape & HBR
Unknown
Radar Cross Section
Medium (>0.1 m² and <1 m²)

Expand to show TLE details & history
Last TLE update: 14 hours ago

TLE from 14 hours ago
0 SECOR 3
1 01208U 65016E   26174.76670390  .00000009  00000-0  44449-4 0  9995
2 01208  70.0776 170.0885 0017575  75.0281 103.0848 13.96081084120082
Epoch: 2026-06-23T18:24Z
TLE epoch observation values (Epoch: 2026-06-23T18:24:03.216Z)
Latitude
1.49484°
Longitude
161.60247°
Altitude
912.454 km
Speed
7.395 km/s
True Right ascension
23h 18m 11s
True Declination
1° 29' 10"
Sunlit
Object was in daylight at epoch
Visualization orbit readout
Latitude
Unknown
Longitude
Unknown
Altitude
Unknown
Speed
Unknown
Apparent Right ascension
Unknown
Apparent Declination
Unknown
Sunlit
N/A
Visualization observer readout
Local Sidereal Time
19:43:08
Azimuth
Unknown
Elevation
Unknown
Doppler factor
Unknown
Orbital elements
Apogee altitude
918.233 km
Perigee altitude
892.632 km
Semi-major axis
7,283.57 km
Eccentricity
0.00176
Inclination
70.0776°
RAAN
170.0885°
Arg. of periapsis
75.0281°
True anomaly
103.28087°
Mean anomaly
103.0848°
Eccentric anomaly
103.18284°
Mean motion
3.49162 °/min
Orbital period
103.1 mins
BSTAR
0.000044449
Loading maneuver chart data...
Computing Atmospheric mass density...
Loading historical data...
Loading historical data...
Loading historical data...
Loading historical data...
Loading historical data...
Loading historical data...
Loading historical data...

Documentation

Showing up to 5 results
|